User: anonymous   Login
Location: Caltech
(34.1382°N, 118.1253°W)
Time: 23:35:31
(UTC-07:00)
Language:

Cosmos 2219 Rocket - Orbit

View from above orbital plane
View from above orbital plane
View from above satellite
View from above satellite

Ground track
Ground track

The orbit data is extracted from the following two-line orbital elements,

1 22220U 92076B   17087.90023538 -.00000208 +00000-0 -80748-4 0  9998
2 22220 070.9994 228.2472 0011663 026.3203 101.8963 14.16411146259078
Epoch (UTC): 28 March 2017 21:36:20
Eccentricity: 0.0011663
inclination: 70.9994°
perigee height: 829 km
apogee height: 846 km
right ascension of ascending node: 228.2472°
argument of perigee: 26.3203°
revolutions per day: 14.16411146
mean anomaly at epoch: 101.8963°
orbit number at epoch: 25907

The dashed part of the orbit path shows where the satellite is in the earth's shadow,  

DLR